Location: Unspecified
(0.0000°N, 0.0000°E)
Time: 14:00:23

ARIANE DEB (SPELDA) - Visible Passes

Search period start: 23 March 2018 00:00
Search period end: 02 April 2018 01:00
Orbit: 325 x 32864 km, 3.8° (Epoch: 22 March)

Date Brightness Start Highest point End Pass type
(mag) Time Alt. Az. Time Alt. Az. Time Alt. Az.
24 Mar 5.7 12:32:53 10° W 14:22:06 68° W 21:24:08 53° E visible
26 Mar 5.6 13:42:00 10° W 15:31:03 65° W 22:31:58 59° E visible
28 Mar 5.5 13:51:11 10° W 15:39:51 61° W 22:39:45 66° E visible
30 Mar 5.5 14:00:26 10° W 15:48:32 58° W 22:47:28 73° ENE visible
01 Apr 5.4 14:09:46 10° W 15:57:06 54° W 22:55:08 80° ENE visible
